Weather History for Cut Bank, MT

Change the Weather History Date:

Friday, February 22, 2013

  Actual Average Record
Temperature  
Mean Temperature 31 °F 25 °F  
Max Temperature 40 °F 36 °F 59 °F (1973)
Min Temperature 21 °F 14 °F -45 °F (1910)
Degree Days  
Heating Degree Days 34 40  
Month to date heating degree days 767 908  
Since 1 July heating degree days 5530 5826  
Cooling Degree Days 0 0  
Month to date cooling degree days 0 0  
Year to date cooling degree days 0 0  
Moisture  
Dew Point 20 °F    
Average Humidity 63    
Maximum Humidity 77    
Minimum Humidity 48    
Precipitation  
Precipitation 0.00 in 0.01 in 0.43 in (1937)
Month to date precipitation 0.31 0.16  
Year to date precipitation 0.73 0.36  
Snow  
Snow 0.00 in - - ()
Snow Depth 0.00 in    
Sea Level Pressure  
Sea Level Pressure 29.68 in    
Wind  
Wind Speed 26 mph (WSW)    
Max Wind Speed 44 mph    
Max Gust Speed 52 mph    
Visibility 10 miles    
Events      
T = Trace of Precipitation, MM = Missing Value Source: NWS Daily Summary

Daily Weather History Graph

Daily Weather History Graph

Search for Another Location

Airport:

Trip Planner

Search our weather history database for the weather conditions in past years. The results will help you decide how hot, cold, wet, or windy it might be!

Date:

Astronomy

Feb. 22, 2013 Rise Set
Actual Time 7:23 AM MST 6:02 PM MST
Civil Twilight 6:52 AM MST 6:34 PM MST
Nautical Twilight 6:15 AM MST 7:11 PM MST
Astronomical Twilight 5:39 AM MST 7:47 PM MST
Moon 3:08 PM MST 5:21 AM MST
Length of Visible Light 11h 42m
Length of Day
10h 38m
Waxing Gibbous, 90% of the Moon is Illuminated
Feb 22
Waxing Gibbous
Feb 25
Full
Mar 4
Last Quarter
Mar 11
New
Mar 19
First Quarter

Hourly Weather History & Observations

Time (MST) Temp. Windchill Dew Point Humidity Pressure Visibility Wind Dir Wind Speed Gust Speed Precip Events Conditions
12:56 AM 24.1 °F 11.0 °F 16.0 °F 71% 29.86 in 10.0 mi West 16.1 mph - N/A   Clear
1:56 AM 21.9 °F 8.7 °F 15.1 °F 75% 29.86 in 10.0 mi West 15.0 mph - N/A   Clear
2:56 AM 21.9 °F 9.8 °F 15.1 °F 75% 29.86 in 10.0 mi WSW 12.7 mph - N/A   Clear
3:56 AM 26.1 °F 12.0 °F 17.1 °F 69% 29.83 in 10.0 mi West 20.7 mph - N/A   Clear
4:56 AM 25.0 °F 12.2 °F 18.0 °F 75% 29.85 in 10.0 mi West 16.1 mph - N/A   Clear
5:56 AM 26.1 °F 14.0 °F 17.1 °F 69% 29.85 in 10.0 mi West 15.0 mph - N/A   Clear
6:56 AM 27.0 °F 14.7 °F 18.0 °F 69% 29.84 in 10.0 mi West 16.1 mph - N/A   Clear
7:56 AM 27.0 °F 15.6 °F 18.0 °F 69% 29.83 in 10.0 mi WSW 13.8 mph - N/A   Clear
8:56 AM 30.9 °F 18.7 °F 19.0 °F 61% 29.81 in 10.0 mi WSW 19.6 mph - N/A   Clear
9:56 AM 35.1 °F 22.7 °F 19.0 °F 52% 29.78 in 10.0 mi WSW 25.3 mph 36.8 mph N/A   Clear
10:56 AM 37.0 °F 24.3 °F 19.0 °F 48% 29.74 in 10.0 mi WSW 31.1 mph 39.1 mph N/A   Clear
11:56 AM 37.9 °F 25.1 °F 19.9 °F 48% 29.71 in 10.0 mi WSW 33.4 mph 43.7 mph N/A   Clear
12:56 PM 37.9 °F 24.2 °F 19.9 °F 48% 29.67 in 10.0 mi WSW 39.1 mph 48.3 mph N/A   Clear
1:56 PM 39.0 °F 26.1 °F 21.0 °F 49% 29.63 in 10.0 mi WSW 36.8 mph 50.6 mph N/A   Clear
2:56 PM 39.0 °F 26.6 °F 21.0 °F 49% 29.60 in 10.0 mi WSW 33.4 mph 46.0 mph N/A   Clear
3:56 PM 37.0 °F 23.5 °F 21.0 °F 52% 29.59 in 10.0 mi WSW 35.7 mph 42.6 mph N/A   Mostly Cloudy
4:56 PM 37.0 °F 24.9 °F 21.0 °F 52% 29.57 in 10.0 mi WSW 27.6 mph 34.5 mph N/A   Overcast
5:56 PM 37.0 °F 24.9 °F 21.0 °F 52% 29.53 in 10.0 mi SW 27.6 mph 36.8 mph N/A   Partly Cloudy
6:56 PM 37.0 °F 24.3 °F 19.9 °F 50% 29.53 in 10.0 mi WSW 31.1 mph 42.6 mph N/A   Clear
7:56 PM 37.0 °F 22.6 °F 19.9 °F 50% 29.52 in 10.0 mi WSW 41.4 mph 51.8 mph N/A   Clear
8:56 PM 36.0 °F 22.0 °F 21.9 °F 57% 29.49 in 10.0 mi WSW 35.7 mph 44.9 mph N/A   Partly Cloudy
9:56 PM 35.1 °F 23.8 °F 23.0 °F 61% 29.50 in 10.0 mi West 20.7 mph 26.5 mph N/A   Partly Cloudy
10:56 PM 35.1 °F 22.0 °F 24.1 °F 64% 29.48 in 10.0 mi West 28.8 mph 35.7 mph N/A   Clear
11:56 PM 35.1 °F 22.2 °F 24.1 °F 64% 29.46 in 10.0 mi West 27.6 mph 41.4 mph N/A   Clear